Total_Precipitation_Accumulation
0.05 0.11 0.15 0.18 0.11 0.14 0.21 0.26 0.17 0.18 0.16 0.11 0.07 0.07 0.07 0.07 0.10 0.20 0.28 0.21 0.37 0.49 0.59 0.78 0.83 0.78 0.71 0.60 0.49 0.50 0.62 0.64 0.57 0.42 0.30 0.25 0.27 0.32 0.28 0.22 0.16 0.12 0.09
0.08 0.15 0.17 0.21 0.16 0.16 0.23 0.29 0.21 0.32 0.23 0.17 0.12 0.08 0.07 0.07 0.07 0.10 0.14 0.15 0.18 0.26 0.33 0.56 0.79 0.81 0.78 0.73 0.54 0.44 0.55 0.68 0.64 0.47 0.33 0.28 0.30 0.35 0.33 0.27 0.20 0.14 0.09
0.17 0.21 0.22 0.23 0.27 0.24 0.33 0.36 0.35 0.34 0.26 0.21 0.18 0.12 0.11 0.11 0.10 0.11 0.11 0.14 0.12 0.12 0.19 0.38 0.60 0.70 0.67 0.70 0.69 0.58 0.59 0.74 0.75 0.59 0.41 0.33 0.34 0.36 0.37 0.34 0.25 0.16 0.08
0.28 0.39 0.32 0.30 0.42 0.40 0.47 0.59 0.55 0.49 0.48 0.36 0.24 0.16 0.15 0.16 0.15 0.15 0.16 0.19 0.16 0.11 0.14 0.27 0.48 0.57 0.65 0.78 0.92 0.90 0.80 0.81 0.89 0.85 0.69 0.53 0.49 0.48 0.45 0.40 0.31 0.19 0.10
0.48 0.66 0.53 0.54 0.56 0.57 0.61 0.46 0.64 0.78 0.73 0.61 0.33 0.21 0.16 0.18 0.17 0.16 0.16 0.16 0.16 0.16 0.13 0.18 0.31 0.40 0.55 0.78 0.96 1.07 1.12 1.12 1.14 1.29 1.31 1.14 1.03 0.84 0.64 0.49 0.36 0.22 0.13
0.80 0.93 0.76 0.74 0.70 0.78 0.81 0.76 0.85 0.82 0.71 0.67 0.37 0.23 0.20 0.19 0.16 0.14 0.14 0.14 0.12 0.12 0.14 0.18 0.25 0.22 0.29 0.47 0.63 0.79 1.08 1.39 1.48 1.77 2.03 1.96 1.68 1.25 0.85 0.61 0.42 0.26 0.17
0.93 1.07 0.92 1.01 0.96 0.90 0.94 0.92 0.98 0.98 0.86 0.85 0.65 0.43 0.22 0.13 0.12 0.13 0.17 0.17 0.14 0.13 0.13 0.15 0.20 0.23 0.31 0.39 0.32 0.37 0.68 1.10 1.37 1.66 2.22 2.59 2.28 1.62 1.04 0.73 0.50 0.36 0.25
1.02 1.05 1.18 1.06 1.05 1.04 1.06 1.12 1.12 0.96 0.81 0.97 0.95 0.86 0.57 0.38 0.25 0.20 0.32 0.37 0.32 0.27 0.21 0.19 0.18 0.23 0.30 0.41 0.37 0.25 0.41 0.70 0.95 1.22 1.69 2.22 2.21 1.72 1.17 0.84 0.55 0.40 0.32
1.12 1.16 1.22 1.19 1.11 1.09 1.06 1.19 1.14 1.05 0.97 1.05 1.12 1.10 0.94 0.70 0.45 0.22 0.27 0.37 0.45 0.46 0.39 0.28 0.20 0.20 0.24 0.37 0.54 0.48 0.35 0.41 0.57 0.86 1.21 1.51 1.61 1.40 1.09 0.88 0.70 0.54 0.40
1.26 1.29 1.25 1.22 1.19 1.14 1.07 1.01 0.97 1.19 1.17 1.06 1.17 1.18 1.13 0.96 0.79 0.46 0.39 0.45 0.49 0.50 0.51 0.40 0.29 0.24 0.25 0.34 0.47 0.52 0.48 0.42 0.49 0.69 0.81 0.93 1.06 1.04 0.94 0.87 0.89 0.76 0.56
1.22 1.15 1.14 1.27 1.30 1.19 1.11 1.07 1.08 1.16 1.16 1.11 1.13 1.19 1.24 1.20 1.08 0.85 0.53 0.44 0.42 0.41 0.44 0.37 0.33 0.30 0.25 0.31 0.50 0.52 0.52 0.41 0.48 0.61 0.53 0.49 0.58 0.68 0.71 0.77 0.87 0.86 0.73
1.05 1.00 1.06 1.18 1.21 1.17 1.11 1.03 1.01 1.09 1.10 1.10 1.10 1.12 1.14 1.09 1.13 1.13 0.82 0.58 0.41 0.24 0.25 0.31 0.32 0.28 0.25 0.31 0.35 0.36 0.35 0.33 0.37 0.43 0.32 0.24 0.27 0.36 0.47 0.60 0.71 0.77 0.78
0.98 0.96 0.98 0.98 1.00 0.98 1.00 1.01 0.99 1.05 1.10 1.09 1.10 1.13 1.11 1.05 1.06 1.05 0.94 0.74 0.58 0.31 0.29 0.31 0.32 0.33 0.27 0.32 0.36 0.27 0.21 0.20 0.21 0.19 0.15 0.14 0.16 0.20 0.28 0.40 0.54 0.64 0.68
0.96 0.89 0.82 0.80 0.83 0.84 0.86 0.96 1.03 1.06 1.09 1.11 1.14 1.24 1.15 1.08 1.06 1.04 1.03 0.96 0.77 0.56 0.49 0.46 0.37 0.31 0.25 0.24 0.24 0.18 0.16 0.13 0.11 0.10 0.09 0.09 0.09 0.14 0.19 0.30 0.41 0.49 0.54
0.89 0.85 0.82 0.81 0.78 0.78 0.82 0.89 0.98 0.99 1.02 1.05 1.12 1.19 1.19 1.16 1.05 1.06 1.11 1.08 0.99 0.81 0.77 0.73 0.56 0.33 0.25 0.20 0.18 0.13 0.13 0.11 0.08 0.06 0.05 0.06 0.07 0.09 0.12 0.19 0.27 0.35 0.42
0.69 0.70 0.69 0.70 0.69 0.69 0.70 0.76 0.84 0.91 0.93 0.93 0.92 0.97 1.02 1.07 0.98 0.95 0.99 0.98 0.97 0.89 0.79 0.84 0.73 0.44 0.28 0.20 0.19 0.13 0.12 0.09 0.06 0.04 0.03 0.04 0.05 0.06 0.08 0.12 0.17 0.23 0.29
0.52 0.54 0.56 0.58 0.60 0.63 0.65 0.66 0.71 0.76 0.75 0.74 0.73 0.75 0.78 0.80 0.75 0.65 0.62 0.66 0.75 0.80 0.70 0.86 0.86 0.60 0.41 0.32 0.27 0.21 0.16 0.13 0.11 0.06 0.05 0.05 0.05 0.06 0.07 0.11 0.15 0.19 0.24
0.44 0.45 0.47 0.48 0.52 0.57 0.61 0.66 0.72 0.74 0.70 0.65 0.60 0.60 0.59 0.56 0.56 0.52 0.44 0.44 0.55 0.66 0.67 0.73 0.92 0.85 0.56 0.40 0.35 0.29 0.21 0.16 0.18 0.11 0.07 0.06 0.07 0.07 0.07 0.11 0.15 0.19 0.24
0.36 0.35 0.33 0.35 0.39 0.46 0.52 0.57 0.57 0.57 0.59 0.60 0.54 0.48 0.42 0.40 0.48 0.51 0.43 0.41 0.46 0.57 0.63 0.65 0.84 0.94 0.71 0.50 0.46 0.40 0.34 0.35 0.22 0.16 0.10 0.06 0.08 0.09 0.09 0.11 0.15 0.22 0.26
0.27 0.29 0.30 0.33 0.36 0.40 0.44 0.44 0.41 0.39 0.39 0.41 0.40 0.37 0.34 0.34 0.39 0.47 0.46 0.47 0.49 0.49 0.59 0.66 0.77 0.87 0.85 0.67 0.64 0.57 0.50 0.48 0.41 0.28 0.24 0.12 0.09 0.11 0.12 0.13 0.16 0.23 0.31
0.17 0.18 0.21 0.26 0.29 0.30 0.30 0.29 0.28 0.24 0.23 0.21 0.22 0.22 0.20 0.20 0.19 0.22 0.30 0.41 0.49 0.54 0.58 0.66 0.73 0.81 0.80 0.72 0.64 0.63 0.61 0.64 0.63 0.55 0.53 0.37 0.31 0.28 0.22 0.17 0.17 0.22 0.33
0.12 0.13 0.14 0.15 0.17 0.18 0.20 0.20 0.18 0.15 0.10 0.08 0.07 0.07 0.05 0.05 0.07 0.11 0.13 0.19 0.28 0.42 0.59 0.73 0.76 0.79 0.83 0.81 0.77 0.72 0.72 0.72 0.75 0.71 0.69 0.67 0.61 0.62 0.49 0.29 0.22 0.22 0.32
0.09 0.10 0.11 0.10 0.09 0.10 0.11 0.14 0.15 0.10 0.04 0.02 0.01 0.01 0.01 0.00 0.02 0.05 0.06 0.06 0.08 0.11 0.21 0.48 0.67 0.69 0.67 0.71 0.78 0.85 0.86 0.90 0.97 0.92 0.87 0.94 0.90 0.90 0.69 0.53 0.43 0.29 0.27
0.10 0.10 0.10 0.08 0.05 0.04 0.05 0.05 0.06 0.05 0.02 0.01 0.00 0.00 0.00 0.00 0.00 0.01 0.04 0.07 0.04 0.02 0.04 0.14 0.21 0.26 0.32 0.42 0.57 0.75 0.90 1.00 1.14 1.11 1.02 1.15 1.14 1.14 1.04 0.80 0.56 0.39 0.30
0.14 0.10 0.11 0.10 0.06 0.02 0.02 0.02 0.02 0.03 0.02 0.00 0.00 0.00 0.00 0.00 0.00 0.00 0.01 0.04 0.03 0.01 0.00 0.01 0.04 0.07 0.11 0.16 0.24 0.40 0.57 0.80 1.11 1.29 1.22 1.28 1.34 1.33 1.47 1.43 1.01 0.68 0.47
0.16 0.11 0.11 0.11 0.07 0.03 0.01 0.01 0.01 0.02 0.02 0.01 0.01 0.00 0.00 0.00 0.00 0.00 0.00 0.01 0.02 0.01 0.01 0.01 0.02 0.02 0.02 0.03 0.06 0.14 0.26 0.44 0.72 0.98 1.03 1.10 1.28 1.44 1.70 1.80 1.57 1.19 0.84